Mount Holly, NJ

7:29 PM EST on December 14, 2019 (GMT -0500)
South Jersey Regional

Weather History for KVAY - October, 2019

Change the Weather History Date:

Friday, October 4, 2019

  Actual Average (KPNE) Record (KPNE)
Temperature  
Mean Temperature 58 °F -  
Max Temperature 69 °F 67 °F 87 °F (2013)
Min Temperature 46 °F 48 °F 35 °F (1996)
Degree Days  
Heating Degree Days 7    
Growing Degree Days 8 (Base 50)    
Moisture  
Dew Point 53 °F    
Average Humidity 77    
Maximum Humidity 97    
Minimum Humidity 43    
Precipitation  
Precipitation 0.03 in - - ()
Sea Level Pressure  
Sea Level Pressure 30.05 in    
Wind  
Wind Speed 7 mph (NNW)    
Max Wind Speed 18 mph    
Max Gust Speed 30 mph    
Visibility 8 miles    
Events Rain    
Averages and records for this station are not official NWS values.
T = Trace of Precipitation, MM = Missing Value Source: NWS Daily Summary

Daily Weather History Graph

Daily Weather History Graph

Search for Another Location

Airport or City:

Astronomy

Oct. 04, 2019 Rise Set
Actual Time 6:58 AM EDT 6:37 PM EDT
Civil Twilight 6:31 AM EDT 7:04 PM EDT
Nautical Twilight 6:00 AM EDT 7:35 PM EDT
Astronomical Twilight 5:28 AM EDT 8:07 PM EDT
Moon 1:27 PM EDT (10/4) 11:04 PM EDT (10/4)
Length of Visible Light 12h 32m
Length of Day
11h 38m
Waxing Crescent, 39% of the Moon is Illuminated
Oct 4
Waxing Crescent
Oct 5
First Quarter
Oct 13
Full
Oct 21
Last Quarter
Oct 27
New

Hourly Weather History & Observations

Time (EDT) Temp. Dew Point Humidity Pressure Visibility Wind Dir Wind Speed Gust Speed Precip Events Conditions
12:08 AM 63.0 °F 62.1 °F 97% 29.95 in 1.2 mi NNW 4.6 mph - N/A   Overcast
12:54 AM 63.0 °F 62.1 °F 97% 29.94 in 1.8 mi NNW 4.6 mph - N/A   Overcast
1:03 AM 63.0 °F 62.1 °F 97% 29.94 in 2.0 mi NNW 4.6 mph - N/A   Overcast
1:10 AM 63.0 °F 62.1 °F 97% 29.94 in 1.8 mi NNW 5.8 mph - 0.01 in Rain Light Rain
1:22 AM 63.0 °F 61.0 °F 93% 29.94 in 2.0 mi North 5.8 mph - 0.02 in   Overcast
1:37 AM 62.1 °F 61.0 °F 96% 29.95 in 3.0 mi North 4.6 mph - 0.03 in   Overcast
1:54 AM 62.1 °F 61.0 °F 96% 29.94 in 5.0 mi NNW 4.6 mph - 0.03 in   Overcast
2:54 AM 62.1 °F 61.0 °F 96% 29.93 in 4.0 mi Calm Calm - N/A   Overcast
3:54 AM 61.0 °F 60.1 °F 97% 29.94 in 9.0 mi NW 5.8 mph - N/A   Overcast
4:04 AM 61.0 °F 60.1 °F 97% 29.94 in 10.0 mi Variable 4.6 mph - N/A   Overcast
4:22 AM 61.0 °F 60.1 °F 97% 29.94 in 10.0 mi NW 5.8 mph - N/A   Overcast
4:34 AM 61.0 °F 60.1 °F 97% 29.94 in 10.0 mi WNW 3.5 mph - N/A   Overcast
4:54 AM 61.0 °F 60.1 °F 97% 29.95 in 10.0 mi NW 4.6 mph - N/A   Overcast
5:11 AM 62.1 °F 60.1 °F 93% 29.96 in 10.0 mi NW 4.6 mph - N/A   Overcast
5:35 AM 62.1 °F 60.1 °F 93% 29.96 in 10.0 mi Variable 4.6 mph - N/A   Overcast
5:54 AM 62.1 °F 59.0 °F 90% 29.97 in 10.0 mi Variable 5.8 mph - N/A   Overcast
6:20 AM 61.0 °F 59.0 °F 93% 29.97 in 10.0 mi Variable 4.6 mph - N/A   Scattered Clouds
6:54 AM 60.1 °F 57.9 °F 93% 29.99 in 10.0 mi North - - N/A   Clear
7:54 AM 61.0 °F 55.9 °F 83% 30.01 in 10.0 mi WNW 6.9 mph - N/A   Clear
8:54 AM 64.0 °F 53.1 °F 67% 30.03 in 10.0 mi WNW 11.5 mph 17.3 mph N/A   Clear
9:54 AM 64.9 °F 51.1 °F 61% 30.05 in 10.0 mi NW 13.8 mph 20.7 mph N/A   Clear
10:54 AM 66.9 °F 51.1 °F 57% 30.06 in 10.0 mi NNW 16.1 mph 24.2 mph N/A   Clear
11:54 AM 68.0 °F 50.0 °F 52% 30.08 in 10.0 mi NW 17.3 mph 27.6 mph N/A   Mostly Cloudy
12:54 PM 68.0 °F 46.0 °F 45% 30.10 in 10.0 mi NNW 17.3 mph 29.9 mph N/A   Clear
1:54 PM 68.0 °F 45.0 °F 43% 30.11 in 10.0 mi NW 11.5 mph 29.9 mph N/A   Clear
2:54 PM 66.9 °F 44.1 °F 44% 30.12 in 10.0 mi NW 11.5 mph 21.9 mph N/A   Clear
3:54 PM 64.9 °F 42.1 °F 43% 30.13 in 10.0 mi North 18.4 mph 27.6 mph N/A   Unknown
4:54 PM 63.0 °F 41.0 °F 45% 30.16 in 10.0 mi NNW 15.0 mph 24.2 mph N/A   Clear
5:54 PM 60.1 °F 39.9 °F 47% 30.19 in 10.0 mi North 11.5 mph 26.5 mph N/A   Clear
6:54 PM 55.0 °F 39.0 °F 55% 30.22 in 10.0 mi North 12.7 mph - N/A   Clear
7:54 PM 53.1 °F 39.0 °F 59% 30.25 in 10.0 mi NNW 6.9 mph - N/A   Clear
8:54 PM 52.0 °F 39.0 °F 61% 30.27 in 10.0 mi North 6.9 mph - N/A   Clear
9:54 PM 50.0 °F 39.0 °F 66% 30.30 in 10.0 mi North 9.2 mph - N/A   Clear
10:54 PM 48.9 °F 39.0 °F 69% 30.32 in 10.0 mi North 6.9 mph - N/A   Clear
11:54 PM 46.9 °F 39.0 °F 74% 30.34 in 10.0 mi NNW 5.8 mph - N/A   Clear